Retour au catalogue

STARLINK-1477

ActifCommunicationsVLEO
NORAD 45754·PAYLOAD·🇺🇸 United States

Lancé Jun 13, 2020 depuis Cape Canaveral Space Force Station

Loading…

Prochains Passages (prochaines 24 heures)

TLE

FraisSource: CelesTrak SupGP

Époque: Sep 15, 2026, 00:37 UTC

1 45754C 20038AA  26258.02618056  .00013609  00000+0  55846-3 0  2586
2 45754  53.0218  65.9737 0002305 138.7721 124.8811 15.23692594    14

Suivez STARLINK-1477 en temps réel avec AllMySat

Download on the App Store